Miscellaneous Local Product
Issued by NWS Hastings, NE

Home | Current Version | Previous Version | Graphics & Text | Print | Product List | Glossary On
Versions: 1 2 3 4 5 6 7 8 9 10 11 12 13 14 15 16 17 18 19 20 21 22 23 24 25 26 27 28 29 30 31 32 33 34 35 36 37 38 39 40 41 42 43 44 45 46 47 48 49 50
000
AXUS43 KGID 191810
MISGRI

GID CWA HOURLY WEATHER ROUNDUP
NATIONAL WEATHER SERVICE HASTINGS NE
100 PM CDT FRI SEP 19 2014

NOTE: "FAIR" INDICATES FEW OR NO CLOUDS BELOW 12,000 FEET WITH NO
SIGNIFICANT WEATHER AND/OR OBSTRUCTIONS TO VISIBILITY.

...SOUTH CENTRAL NEBRASKA...

CITY           SKY/WX    TMP DP  RH WIND       PRES   REMARKS
GRAND ISLAND   SUNNY     85  63  47 SW17G26   29.87F
HASTINGS       SUNNY     83  59  44 SW18G26   29.89S
KEARNEY        SUNNY     82  64  54 S18G24    29.89S
ORD            SUNNY     83  64  52 SW17      29.81F
YORK           SUNNY     82  66  57 SW18G25   29.88F
AURORA         SUNNY     85  61  44 S18       29.87F
LEXINGTON      SUNNY     82  67  59 S14G20    29.88F
HOLDREGE       SUNNY     82  62  50 SW17G24   29.90R
HEBRON         SUNNY     84  62  46 SW12G20   29.91F

...NEBRASKA PANHANDLE...

CITY           SKY/WX    TMP DP  RH WIND       PRES   REMARKS
CHADRON        MOSUNNY   81  52  36 SW6       29.87S
ALLIANCE       SUNNY     83  53  35 VRB7      29.90S
SCOTTSBLUFF    SUNNY     83  51  33 MISG      29.92S
SIDNEY         SUNNY     85  49  28 VRB6      29.95F

...WESTERN AND NORTH CENTRAL NEBRASKA...

CITY           SKY/WX    TMP DP  RH WIND       PRES   REMARKS
VALENTINE      SUNNY     84  57  39 VRB3      29.80S
AINSWORTH      SUNNY     81  58  46 W8        29.80F
ONEILL         SUNNY     84  63  49 SW14G23   29.78S
BROKEN BOW     SUNNY     87  60  40 SW17G23   29.84S
IMPERIAL       SUNNY     89  54  30 SW15G22   29.90S
NORTH PLATTE   SUNNY     84  59  42 SW14      29.86F
MCCOOK         SUNNY     91  58  32 SW18G25   29.88S HX  90

...EASTERN NEBRASKA...

CITY           SKY/WX    TMP DP  RH WIND       PRES   REMARKS
NORFOLK        SUNNY     84  65  52 SW18G31   29.80F
SO SIOUX CITY  SUNNY     81  67  62 S14G24    29.79F
TEKAMAH        SUNNY     83  66  56 S23G29    29.84F
ALBION         SUNNY     82  63  52 SW15G23   29.82F
OMAHA EPPLEY   MOSUNNY   77  65  66 S17       29.88F
OFFUTT AFB     SUNNY     76  71  84 S16       29.90F
MILLARD        SUNNY     80  68  68 SE15      29.88F
LINCOLN        SUNNY     85  66  53 S21       29.88F
NEBRASKA CITY  SUNNY     76  65  69 S13       29.93F
BEATRICE       SUNNY     84  66  54 SW16      29.91F
FALLS CITY     CLOUDY    73  66  78 S13       29.95F

...NORTHERN KANSAS...

CITY           SKY/WX    TMP DP  RH WIND       PRES   REMARKS
GOODLAND       SUNNY     84  57  39 S20G30    29.94F
HILL CITY      SUNNY     87  61  41 S18G26    29.91F
NORTON         CLEAR     88  57  35 S18       29.90
SMITH CENTER   SUNNY     86  61  42 S21       29.92S
BELOIT         SUNNY     88  64  45 S12G18    29.91F
HAYS           SUNNY     84  64  51 S18G25    29.94F
RUSSELL        SUNNY     84  64  50 S18G29    29.93F
CONCORDIA      SUNNY     82  67  60 SW16      29.93F
SALINA         SUNNY     85  69  58 S13G20    29.94F
TOPEKA         CLOUDY    73  67  81 S9        29.99S



USA.gov is the U.S. government's official web portal to all federal, state and local government web resources and services.